625  
ASUS43 KMKX 190220  
RWRWI  
 
WISCONSIN REGIONAL WEATHER ROUNDUP  
NATIONAL WEATHER SERVICE MILWAUKEE/SULLIVAN WI  
800 PM CST FRI JAN 18 2019  
 
NOTE: "FAIR" INDICATES FEW OR NO CLOUDS BELOW 12,000 FEET WITH NO  
SIGNIFICANT WEATHER AND/OR S TO VISIBILITY
.  
 
WIZ001-002-006>008-014>016-023>028-190300-  
NORTHWEST WISCONSIN  
 
CITY SKY/WX TMP DP RH WIND PRES REMARKS
 
SUPERIOR ARPT CLOUDY 0 -13 55 N8 30.43S WCI -15  
ASHLAND CLOUDY 5 -1 76 NW7 30.39R WCI -7  
HAYWARD CLOUDY 4 -3 73 NE9 30.33R WCI -10  
SIREN MOCLDY 3 -4 72 N7 30.37R WCI -9  
CUMBERLAND CLOUDY 9 -2 61 N10 30.30S WCI -6  
RICE LAKE MOCLDY 9 1 69 N14 30.31S WCI -8  
CHETEK MOCLDY 10 0 65 N7 30.30S WCI -2  
LADYSMITH CLOUDY 9 1 71 N9 30.31R WCI -4  
EAU CLAIRE LGT SNOW 11 6 81 NE7 30.28S WCI 0  
MENOMONIE CLOUDY 8 1 72 N8 30.30R HAZE WCI -4  
NEW RICHMOND CLOUDY 8 -2 64 N13 30.32R WCI -8  
OSCEOLA MOCLDY 6 -1 71 N10G17 30.37S WCI -8  

 
 
WIZ003>005-009-010-017-018-190300-  
NORTH CENTRAL WISCONSIN  
 
CITY SKY/WX TMP DP RH WIND PRES REMARKS
 
MANITOWISH WTR CLOUDY 1 -7 71 NE6 30.28S WCI -11  
ARBOR VITAE MOCLDY 3 -5 69 NE3 30.27R  
WOODRUFF MOCLDY 3 -5 69 NE3 30.27R  
RHINELANDER CLOUDY 5 -6 60 NE6 30.25R WCI -6  
EAGLE RIVER FAIR 1 -7 69 NE9 30.26R WCI -14  
LAND O LAKES FAIR 1 -6 73 NE5 30.29R WCI -9  
PHILLIPS CLOUDY 4 -4 69 NE9 30.27R WCI -11  
TOMAHAWK CLOUDY 5 -4 66 NE5 30.26S WCI -4  
MEDFORD CLOUDY 10 -1 61 NE10 30.22S WCI -4  
MERRILL CLOUDY 10 -1 62 NE9 30.25S WCI -3  

 
 
WIZ029-030-035-036-043>047-190300-  
CENTRAL WISCONSIN  
 
CITY SKY/WX TMP DP RH WIND PRES REMARKS
 
WAUSAU CLOUDY 13 1 59 NE8 30.22R WCI 2  
MOSINEE LGT SNOW 14 5 67 NE10 30.23S WCI 1  
MARSHFIELD LGT SNOW 13 8 81 NE9 30.21S WCI 1  
STEVENS POINT LGT SNOW 13 5 72 NE5 30.25R WCI 5  
WAUPACA FLURRIES 19 9 64 NE10 30.26R WCI 7  
WAUTOMA FLURRIES 17 8 67 E13 30.24R WCI 4  
WISC RAPIDS LGT SNOW 15 6 67 NE8 30.24R WCI 4  
CAMP DOUGLAS LGT SNOW 16 14 93 NE3 30.22S FOG  

 
 
WIZ011>013-019>022-031-037>040-048>050-190300-  
NORTHEAST WISCONSIN  
 
CITY SKY/WX TMP DP RH WIND PRES REMARKS
 
ANTIGO CLOUDY 8 0 69 NE13 30.24S WCI -8  
SHAWANO CLOUDY 15 3 58 NE13 30.29S WCI 1  
OCONTO CLOUDY 11 2 66 NE13 30.32S WCI -3  
STURGEON BAY CLOUDY 10 2 69 NE16 30.32R WCI -7  
GREEN BAY CLOUDY 15 6 67 NE20G29 30.29R WCI -2  
MANITOWOC NOT AVBL  
APPLETON FLURRIES 18 7 62 NE14 30.22S WCI 4  
CLINTONVILLE LGT SNOW 15 8 75 E9 30.28R WCI 3  
OSHKOSH LGT SNOW 17 10 74 NE10 30.24R WCI 5  

 
 
WIZ032>034-041-042-053>061-190300-  
SOUTHWEST WISCONSIN  
 
CITY SKY/WX TMP DP RH WIND PRES REMARKS
 
LA CROSSE LGT SNOW 16 12 84 N6 30.25R VSB 1 WCI 7  
SPARTA LGT SNOW 14 12 91 CALM 30.24S  
VIROQUA CLOUDY 14 13 97 NE10 30.17S WCI 1  
BOSCOBEL SNOW 18 14 84 NE7G20 30.18F VSB 1/2 WCI 9  
PRAIRIE DU CHI LGT SNOW 17 13 84 CALM 30.17S VSB 1  
PLATTEVILLE CLOUDY 18 17 96 NE18 30.12S VSB 1 WCI 2  

 
 
WIZ056-057-062-063-064-067-068-190300-  
SOUTH CENTRAL WISCONSIN  
 
CITY SKY/WX TMP DP RH WIND PRES REMARKS
 
REEDSBURG LGT SNOW 15 12 88 NE9 30.21R WCI 3  
BARABOO/DELLS LGT SNOW 15 12 88 E8 30.20R VSB 1 WCI 4  
LONE ROCK LGT SNOW 17 14 88 NE12 30.20S VSB 1 WCI 4  
MINERAL POINT LGT SNOW 19 19 100 NE12 30.12S WCI 7  
MADISON LGT SNOW 17 13 84 NE10 30.19S VSB 3/4 WCI 5  
MIDDLETON CLOUDY 18 15 89 NE10 30.18S WCI 6  
WATERTOWN MIX PCPN 17 16 96 N7 30.19S WCI 7  
MONROE LGT SNOW 19 17 91 MISG 30.13S  
JANESVILLE LGT SNOW 21 19 93 NE10 30.15F WCI 10  

 
 
WIZ051-052-058>065-066-070>072-190300-  
SOUTHEAST WISCONSIN  
 
CITY SKY/WX TMP DP RH WIND PRES REMARKS
 
MILWAUKEE LGT SNOW 24 19 81 NE14G23 30.18S VSB 1 WCI 12  
WAUKESHA LGT SNOW 18 16 93 NE9 30.18S WCI 6  
MILWAUKEE/TIMM LGT SNOW 21 18 86 NE9 30.20S WCI 11  
RACINE LGT SNOW 24 20 84 NE15G24 30.18S VSB 3/4 WCI 11  
KENOSHA LGT SNOW 25 23 92 NE15 30.15F VSB 3/4 WCI 13  
FOND DU LAC CLOUDY 18 8 65 NE10 30.23R WCI 6  
SHEBOYGAN LGT SNOW 18 13 80 N10 30.21F WCI 6  
WEST BEND LGT SNOW 18 16 93 NE8 30.20S WCI 7  
JUNEAU LGT SNOW 16 13 88 N6 30.21R VSB 1 WCI 7  

 
 
LSZ147-162-190300-  
LAKE SUPERIOR  
 
STATION/POSITION TIME TEMP WIND PRES WAVE
 
AIR SEA DIR/SP/G HT/PER  
(UTC) (F) (DEG/KT/KT) (MB) (FT/S)  
DEVILS ISLAND 0200 7 20/ 7/ 9 1031.5R  
SAXON HARBOR 0040 7 160/ 2/ 5 1028.1R  

 
 
LMZ867-665-643>646-190300-  
LAKE MICHIGAN  
 
STATION/POSITION TIME TEMP WIND PRES WAVE
 
AIR SEA DIR/SP/G HT/PER  
(UTC) (F) (DEG/KT/KT) (MB) (FT/S)  
CHAMBERS ISLAND 0140 11 10/ 17/ 21 1026.1R  
NORTHPORT PIER 0149 11 360/ 9/ 11 1027.4R  
KEWAUNEE LAKESHO 0154 15 360/ 10/ 15 1024.6R  
SHEBOYGAN LAKESH 0200 22 40/ 25/ 28 1024.2F  
PORT WASHINGTON 0140 26 40/ 16/ 20 1024.0S  
KENOSHA LAKESH 0200 26 60/ 18/ 22 1021.3  

 
 
TC - TEMPERATURE IN CELSIUS  
VSB - VISIBILITY IN STATUTE MILES  
WCI - WIND CHILL INDEX  
HX - HEAT INDEX  
 
 
 
CLICK HERE TO GO TO PREVIOUS BULLETINS.

The Nexlab WI Page Main Text Page